Location: Pinon Hills
(34.4429°N, 117.6403°W)
Time: 22:53:05
(UTC-07:00)

Uosat F - Visible Passes

Search period start: 27 May 2015 00:00
Search period end: 06 June 2015 00:00
Orbit: 751 x 762 km, 98.7° (Epoch: 27 May)

Date Brightness Start Highest point End Pass type
(mag) Time Alt. Az. Time Alt. Az. Time Alt. Az.
28 May 13.2 05:01:39 10° NE 05:05:50 27° E 05:10:07 10° SSE visible
31 May 13.7 04:43:24 10° NE 04:46:29 17° E 04:49:47 10° SE visible
02 Jun 13.2 05:02:37 10° NE 05:06:49 27° E 05:11:07 10° SSE visible
05 Jun 13.7 04:44:21 10° NE 04:47:28 17° E 04:50:48 10° SE visible
